Total_Precipitation_Accumulation
0.26 0.20 0.17 0.16 0.17 0.19 0.24 0.32 0.47 0.53 0.52 0.53 0.60 0.63 0.64 0.67 0.65 0.56 0.51 0.43 0.42 0.42 0.41 0.46 0.47 0.48 0.45 0.43 0.46 0.49 0.49 0.49 0.57 0.60 0.59 0.56 0.58 0.56 0.55 0.55 0.55 0.55 0.53 0.57
0.19 0.17 0.15 0.12 0.11 0.15 0.20 0.25 0.33 0.34 0.35 0.31 0.30 0.28 0.26 0.28 0.33 0.32 0.30 0.27 0.31 0.34 0.37 0.42 0.41 0.40 0.42 0.40 0.37 0.37 0.38 0.40 0.48 0.55 0.56 0.56 0.54 0.52 0.50 0.51 0.53 0.53 0.51 0.55
0.21 0.15 0.19 0.17 0.10 0.12 0.17 0.17 0.21 0.27 0.30 0.30 0.24 0.20 0.18 0.16 0.16 0.18 0.20 0.22 0.25 0.28 0.34 0.40 0.39 0.38 0.39 0.38 0.36 0.35 0.37 0.40 0.46 0.48 0.46 0.50 0.51 0.46 0.43 0.46 0.50 0.51 0.53 0.55
0.32 0.28 0.32 0.16 0.08 0.08 0.10 0.12 0.15 0.18 0.20 0.22 0.20 0.20 0.17 0.14 0.14 0.15 0.17 0.18 0.22 0.25 0.29 0.37 0.39 0.39 0.39 0.38 0.37 0.35 0.36 0.38 0.43 0.44 0.44 0.42 0.44 0.40 0.40 0.44 0.48 0.49 0.58 0.59
0.46 0.38 0.22 0.12 0.09 0.09 0.09 0.11 0.13 0.12 0.11 0.12 0.13 0.17 0.15 0.12 0.12 0.12 0.13 0.14 0.17 0.22 0.31 0.37 0.40 0.44 0.45 0.40 0.39 0.38 0.37 0.35 0.36 0.40 0.42 0.42 0.37 0.36 0.37 0.43 0.46 0.45 0.49 0.55
0.55 0.50 0.32 0.15 0.08 0.08 0.11 0.18 0.16 0.14 0.12 0.12 0.14 0.19 0.17 0.13 0.11 0.10 0.10 0.11 0.14 0.19 0.27 0.34 0.40 0.43 0.46 0.46 0.39 0.36 0.36 0.37 0.38 0.38 0.36 0.38 0.38 0.38 0.39 0.44 0.49 0.51 0.51 0.49
0.50 0.50 0.27 0.11 0.08 0.12 0.24 0.25 0.17 0.15 0.13 0.14 0.15 0.15 0.13 0.10 0.08 0.10 0.10 0.11 0.12 0.17 0.25 0.30 0.38 0.41 0.47 0.48 0.37 0.35 0.42 0.45 0.45 0.41 0.41 0.46 0.49 0.46 0.46 0.47 0.50 0.51 0.51 0.49
0.50 0.54 0.34 0.13 0.15 0.23 0.26 0.18 0.14 0.13 0.13 0.13 0.13 0.12 0.10 0.10 0.09 0.11 0.11 0.13 0.13 0.16 0.21 0.26 0.33 0.39 0.43 0.46 0.44 0.43 0.44 0.47 0.47 0.46 0.46 0.51 0.56 0.57 0.57 0.57 0.57 0.58 0.59 0.57
0.47 0.37 0.23 0.17 0.21 0.22 0.20 0.18 0.15 0.14 0.13 0.12 0.12 0.11 0.10 0.11 0.10 0.11 0.12 0.13 0.15 0.18 0.22 0.25 0.32 0.35 0.40 0.44 0.49 0.48 0.46 0.48 0.49 0.50 0.51 0.50 0.53 0.58 0.61 0.61 0.59 0.60 0.60 0.60
0.44 0.27 0.22 0.22 0.21 0.22 0.20 0.17 0.14 0.13 0.13 0.14 0.13 0.13 0.13 0.12 0.11 0.13 0.15 0.15 0.18 0.22 0.24 0.26 0.33 0.38 0.48 0.51 0.49 0.51 0.52 0.53 0.51 0.51 0.51 0.52 0.53 0.54 0.55 0.57 0.56 0.57 0.59 0.58
0.47 0.34 0.30 0.28 0.25 0.24 0.23 0.17 0.13 0.11 0.12 0.14 0.15 0.15 0.16 0.16 0.14 0.14 0.15 0.17 0.20 0.24 0.27 0.29 0.34 0.39 0.49 0.50 0.50 0.54 0.58 0.58 0.55 0.50 0.47 0.49 0.49 0.49 0.51 0.52 0.57 0.63 0.64 0.65
0.56 0.39 0.37 0.33 0.25 0.22 0.23 0.20 0.15 0.12 0.11 0.12 0.13 0.14 0.16 0.15 0.13 0.12 0.13 0.15 0.19 0.22 0.24 0.27 0.31 0.33 0.40 0.45 0.46 0.50 0.55 0.55 0.53 0.55 0.52 0.48 0.47 0.50 0.57 0.59 0.64 0.61 0.62 0.62
0.49 0.38 0.31 0.26 0.24 0.25 0.26 0.24 0.18 0.13 0.12 0.12 0.12 0.13 0.16 0.15 0.13 0.14 0.15 0.16 0.19 0.22 0.22 0.26 0.30 0.33 0.36 0.41 0.45 0.48 0.51 0.49 0.48 0.51 0.53 0.52 0.52 0.53 0.56 0.56 0.57 0.56 0.54 0.54
0.33 0.34 0.33 0.27 0.27 0.27 0.25 0.22 0.17 0.13 0.12 0.12 0.13 0.14 0.16 0.16 0.16 0.16 0.17 0.18 0.19 0.22 0.22 0.24 0.27 0.32 0.37 0.39 0.41 0.49 0.57 0.61 0.55 0.51 0.53 0.55 0.56 0.55 0.55 0.57 0.59 0.57 0.52 0.51
0.23 0.27 0.29 0.26 0.24 0.21 0.21 0.19 0.16 0.13 0.12 0.13 0.14 0.14 0.18 0.18 0.20 0.20 0.17 0.17 0.19 0.20 0.21 0.21 0.24 0.28 0.32 0.36 0.40 0.45 0.51 0.57 0.58 0.57 0.56 0.54 0.53 0.52 0.51 0.51 0.53 0.57 0.56 0.55
0.22 0.20 0.22 0.26 0.23 0.19 0.19 0.20 0.21 0.18 0.14 0.14 0.16 0.16 0.21 0.22 0.23 0.22 0.20 0.20 0.21 0.21 0.21 0.23 0.25 0.26 0.29 0.34 0.39 0.42 0.46 0.55 0.59 0.56 0.55 0.57 0.54 0.53 0.55 0.54 0.54 0.56 0.53 0.55
0.27 0.25 0.27 0.31 0.27 0.22 0.22 0.25 0.27 0.22 0.18 0.16 0.18 0.19 0.23 0.28 0.28 0.26 0.23 0.22 0.21 0.21 0.22 0.23 0.27 0.30 0.33 0.37 0.44 0.46 0.46 0.50 0.57 0.54 0.52 0.56 0.59 0.58 0.61 0.62 0.60 0.60 0.60 0.63
0.28 0.27 0.29 0.32 0.31 0.34 0.36 0.34 0.31 0.25 0.23 0.23 0.22 0.21 0.24 0.28 0.32 0.31 0.30 0.27 0.25 0.25 0.25 0.25 0.27 0.31 0.33 0.38 0.44 0.49 0.53 0.50 0.49 0.51 0.53 0.54 0.57 0.58 0.59 0.60 0.59 0.61 0.64 0.66
0.20 0.22 0.25 0.27 0.32 0.39 0.39 0.38 0.37 0.30 0.24 0.26 0.26 0.24 0.25 0.27 0.31 0.30 0.29 0.30 0.29 0.29 0.28 0.27 0.33 0.32 0.33 0.40 0.46 0.48 0.54 0.55 0.54 0.52 0.51 0.55 0.57 0.55 0.58 0.60 0.61 0.63 0.63 0.63
0.20 0.23 0.28 0.30 0.32 0.33 0.37 0.39 0.34 0.30 0.24 0.26 0.29 0.27 0.26 0.28 0.28 0.27 0.28 0.28 0.28 0.29 0.30 0.33 0.32 0.31 0.36 0.40 0.45 0.41 0.49 0.54 0.53 0.50 0.51 0.52 0.52 0.54 0.56 0.56 0.56 0.60 0.61 0.61
0.26 0.28 0.31 0.34 0.33 0.32 0.38 0.42 0.37 0.33 0.28 0.29 0.30 0.31 0.30 0.29 0.28 0.29 0.31 0.28 0.26 0.26 0.29 0.39 0.36 0.35 0.40 0.47 0.48 0.42 0.44 0.49 0.51 0.52 0.54 0.55 0.56 0.58 0.58 0.57 0.55 0.56 0.57 0.58
0.31 0.32 0.35 0.37 0.37 0.35 0.38 0.46 0.45 0.38 0.33 0.34 0.32 0.34 0.35 0.35 0.32 0.31 0.31 0.32 0.32 0.35 0.34 0.35 0.36 0.46 0.55 0.56 0.45 0.43 0.44 0.45 0.48 0.52 0.53 0.53 0.56 0.59 0.61 0.60 0.60 0.59 0.60 0.63
0.35 0.37 0.38 0.39 0.41 0.41 0.40 0.45 0.47 0.40 0.38 0.40 0.40 0.40 0.41 0.42 0.42 0.42 0.37 0.34 0.34 0.41 0.39 0.39 0.47 0.60 0.67 0.56 0.50 0.49 0.46 0.46 0.46 0.47 0.48 0.50 0.53 0.58 0.60 0.60 0.61 0.62 0.63 0.64
0.37 0.40 0.41 0.41 0.43 0.43 0.47 0.50 0.49 0.46 0.45 0.46 0.46 0.45 0.46 0.50 0.51 0.46 0.45 0.48 0.50 0.49 0.42 0.44 0.54 0.64 0.66 0.54 0.53 0.52 0.49 0.47 0.48 0.48 0.47 0.49 0.53 0.56 0.58 0.56 0.56 0.59 0.60 0.64
0.42 0.43 0.44 0.45 0.47 0.50 0.55 0.55 0.54 0.52 0.53 0.53 0.52 0.50 0.50 0.56 0.63 0.59 0.53 0.52 0.56 0.56 0.47 0.50 0.59 0.61 0.52 0.51 0.53 0.54 0.55 0.56 0.58 0.59 0.56 0.56 0.56 0.55 0.55 0.55 0.55 0.57 0.59 0.65
0.43 0.47 0.50 0.51 0.53 0.55 0.59 0.62 0.64 0.63 0.63 0.64 0.61 0.58 0.56 0.58 0.63 0.64 0.64 0.61 0.61 0.63 0.57 0.57 0.58 0.57 0.53 0.56 0.60 0.59 0.58 0.62 0.67 0.67 0.63 0.63 0.62 0.62 0.64 0.64 0.63 0.64 0.66 0.71
0.41 0.44 0.45 0.46 0.48 0.51 0.56 0.61 0.69 0.72 0.73 0.77 0.74 0.67 0.66 0.69 0.70 0.67 0.66 0.69 0.71 0.70 0.69 0.68 0.66 0.65 0.65 0.67 0.69 0.70 0.68 0.66 0.67 0.67 0.68 0.70 0.71 0.71 0.72 0.73 0.76 0.78 0.78 0.80